Starlink 5869

operational
NORAD ID: 57061 Int'l Des: 2023-088 Owner: SPXS Country: US Constellation: starlink
LEOCIRCULAR

About Starlink 5869

Description loading...

Live Position

Loading 3D Globe...

Upcoming Passes

Altitude History

Altitude vs Time

uPlot chart will show altitude changes over time

Two-Line Element Set

1 57061U 23088P 25259.25887121 .00000904 00000-0 81956-4 0 9993
2 57061 43.0031 335.0353 0001121 266.2462 93.8252 15.02536462123152
Epoch: Sep 16, 2025 • Age: 39 hours

Current Status

Altitude 562.2 km
Velocity 7.58 km/s
Sub-Earth Point -16.48°S, 153.66°W
Launch Date Jun 22, 2023
Age 2.2 years
Type internet

Technical Details

Classification Payload
Mass 305.00 kg
Dry Mass 290.00 kg
Total Mass 305.00 kg
Length 0.20 m
Diameter 2.80 m
Span 9.00 m
Shape Box + pan
Manufacturer SPXS
Bus Type Starlink
Phase Status In Orbit
Owner/State SPXS/US

Large Constellations

Loading constellations...